TimeAST,TemperatureF,Dew PointF,Humidity,Sea Level PressureIn,VisibilityMPH,Wind Direction,Wind SpeedMPH,Gust SpeedMPH,PrecipitationIn,Events,Conditions,WindDirDegrees,DateUTC
12:00 AM,12.2,6.8,79,29.58,10.0,West,15.0,28.8,N/A,Snow,Light Snow Showers,280,2013-01-03 04:00:00
1:00 AM,12.2,6.8,79,29.60,10.0,WNW,17.3,27.6,N/A,Snow,Light Snow Showers,290,2013-01-03 05:00:00
2:00 AM,13,7,66,29.63,10,West,16.1,,,Snow,Light Snow Showers,280,2013-01-03 06:00:00
2:00 AM,12.2,6.8,79,29.63,10.0,West,16.1,25.3,N/A,Snow,Light Snow Showers,280,2013-01-03 06:00:00
3:00 AM,12.2,6.8,79,29.67,-9999.0,West,15.0,23.0,N/A,Snow,Light Snow Showers,280,2013-01-03 07:00:00
4:00 AM,12.2,6.8,79,29.68,10.0,West,11.5,24.2,N/A,Snow,Light Snow Showers,280,2013-01-03 08:00:00
5:00 AM,12.2,6.8,79,29.71,6.0,West,13.8,20.7,N/A,Snow,Light Snow Showers,280,2013-01-03 09:00:00
6:00 AM,12.2,6.8,79,29.72,6.0,West,11.5,20.7,N/A,Snow,Light Snow Showers,280,2013-01-03 10:00:00
7:00 AM,10.4,5.0,79,29.75,6.0,WNW,12.7,20.7,N/A,Snow,Light Snow Showers,290,2013-01-03 11:00:00
8:00 AM,10,6,74,29.76,6,West,12.7,,,Snow,Light Snow Showers,280,2013-01-03 12:00:00
8:00 AM,10.4,5.0,79,29.76,6.0,West,12.7,18.4,N/A,Snow,Light Snow Showers,280,2013-01-03 12:00:00
10:00 AM,10.4,5.0,79,29.81,3.0,West,13.8,26.5,N/A,Snow,Light Snow Showers,260,2013-01-03 14:00:00
11:00 AM,10.4,5.0,79,29.81,4.0,West,12.7,21.9,N/A,Snow,Light Snow Showers,260,2013-01-03 15:00:00
12:00 PM,12.2,5.0,73,29.79,5.0,West,13.8,23.0,N/A,Snow,Light Snow Showers,270,2013-01-03 16:00:00
1:00 PM,12.2,5.0,73,29.77,6.0,West,11.5,18.4,N/A,Snow,Light Snow Showers,270,2013-01-03 17:00:00
2:00 PM,11,5,66,29.78,10,West,12.7,,,Snow,Light Snow Showers,260,2013-01-03 18:00:00
2:00 PM,10.4,5.0,79,29.78,10.0,West,12.7,-,N/A,Snow,Light Snow Showers,260,2013-01-03 18:00:00
3:00 PM,10.4,3.2,73,29.80,15.0,West,13.8,-,N/A,Snow,Light Snow Showers,260,2013-01-03 19:00:00
4:00 PM,8.6,3.2,79,29.81,15.0,West,9.2,-,N/A,Snow,Light Snow Showers,260,2013-01-03 20:00:00
5:00 PM,8.6,3.2,79,29.82,15.0,West,8.1,-,N/A,,Mostly Cloudy,260,2013-01-03 21:00:00
6:00 PM,8.6,3.2,79,29.80,15.0,WSW,9.2,-,N/A,,Mostly Cloudy,250,2013-01-03 22:00:00
7:00 PM,10.4,3.2,73,29.80,15.0,WSW,5.8,-,N/A,,Overcast,250,2013-01-03 23:00:00
8:00 PM,10,4,65,29.80,15,WSW,6.9,,,,Partly Cloudy,240,2013-01-04 00:00:00
8:00 PM,8.6,3.2,79,29.80,15.0,SW,6.9,-,N/A,,Mostly Cloudy,230,2013-01-04 00:00:00
9:00 PM,10.4,5.0,79,29.79,15.0,SW,8.1,-,N/A,,Mostly Cloudy,230,2013-01-04 01:00:00
10:00 PM,10.4,5.0,79,29.79,15.0,WSW,8.1,-,N/A,,Overcast,240,2013-01-04 02:00:00
11:00 PM,8.6,5.0,85,29.78,15.0,WSW,6.9,-,N/A,,Overcast,250,2013-01-04 03:00:00